Nuiqsut, AK

10:22 AM AKST on December 07, 2016 (GMT -0900)
Nuiqsut

Weather History for PAQT - December, 2012

Change the Weather History Date:

Thursday, December 13, 2012

  Actual Average (PAKU) Record (PAKU)
Temperature  
Mean Temperature -39 °F -  
Max Temperature -38 °F -2 °F 15 °F (2008)
Min Temperature -40 °F -9 °F -36 °F (2004)
Degree Days  
Heating Degree Days 104    
Moisture  
Dew Point -    
Average Humidity    
Maximum Humidity    
Minimum Humidity    
Precipitation  
Precipitation 0.00 in - - ()
Sea Level Pressure  
Sea Level Pressure 29.61 in    
Wind  
Wind Speed 10 mph (South)    
Max Wind Speed 14 mph    
Max Gust Speed -    
Visibility 4 miles    
Events      
Averages and records for this station are not official NWS values.
T = Trace of Precipitation, MM = Missing Value Source: NWS Daily Summary

Daily Weather History Graph

Daily Weather History Graph

Search for Another Location

Airport or City:

Trip Planner

Search our weather history database for the weather conditions in past years. The results will help you decide how hot, cold, wet, or windy it might be!

Date:

Astronomy

Dec. 31, 1969 Rise Set
Actual Time Sun does not rise Sun does not rise
Civil Twilight 10:53 AM AKST 3:02 PM AKST
Nautical Twilight 9:04 AM AKST 4:52 PM AKST
Astronomical Twilight 7:44 AM AKST 6:12 PM AKST
Moon No Moon Rise No Moon Set
Length of Visible Light 4h 09m
Length of Day
0h 00m
New Moon, 0% of the Moon is Illuminated
Dec 13
New Moon
Dec 19
First Quarter
Dec 28
Full
Jan 4
Last Quarter
Jan 11
New

Hourly Weather History & Observations

Time (AKST) Temp. Windchill Dew Point Humidity Pressure Visibility Wind Dir Wind Speed Gust Speed Precip Events Conditions
12:53 AM -38.9 °F -63.2 °F - N/A% 29.55 in 4.0 mi SSW 9.2 mph - N/A   Haze
1:51 AM -40.0 °F -64.5 °F - N/A% 29.55 in 4.0 mi South 9.2 mph - N/A   Haze
1:53 AM -40.0 °F -64.5 °F - N/A% 29.55 in 5.0 mi South 9.2 mph - N/A   Haze
3:53 AM -40.0 °F -64.5 °F - N/A% 29.56 in 4.0 mi South 9.2 mph - N/A   Haze
4:53 AM -40.0 °F -65.9 °F - N/A% 29.56 in 5.0 mi South 10.4 mph - N/A   Haze
5:53 AM -38.9 °F -64.6 °F - N/A% 29.57 in 4.0 mi South 10.4 mph - N/A   Haze
6:53 AM -38.9 °F -63.2 °F - N/A% 29.58 in 4.0 mi South 9.2 mph - N/A   Haze
7:53 AM -38.0 °F -63.5 °F - N/A% 29.58 in 4.0 mi South 10.4 mph - N/A   Haze
8:53 AM -38.9 °F -65.9 °F - N/A% 29.59 in 4.0 mi South 11.5 mph - N/A   Haze
9:53 AM -38.9 °F -64.6 °F - N/A% 29.60 in 4.0 mi South 10.4 mph - N/A   Haze
10:53 AM -38.9 °F -64.6 °F - N/A% 29.61 in 3.0 mi South 10.4 mph - N/A   Partly Cloudy
11:53 AM -38.0 °F -63.5 °F - N/A% 29.61 in 3.0 mi South 10.4 mph - N/A   Clear
12:00 PM -38.2 °F -63.7 °F - N/A% 29.61 in 2.5 mi South 10.4 mph - N/A   Clear
12:10 PM -38.2 °F -65.0 °F - N/A% 29.61 in 3.0 mi South 11.5 mph - N/A   Clear
12:53 PM -38.9 °F -68.2 °F - N/A% 29.63 in 3.0 mi South 13.8 mph - N/A   Clear
1:59 PM -38.2 °F -62.3 °F - N/A% 29.64 in 2.5 mi South 9.2 mph - N/A   Scattered Clouds
3:53 PM -40.0 °F -62.9 °F - N/A% 29.65 in 4.0 mi South 8.1 mph - N/A   Haze
4:53 PM -38.9 °F -61.6 °F - N/A% 29.65 in 4.0 mi South 8.1 mph - N/A   Haze
5:53 PM -38.9 °F -63.2 °F - N/A% 29.66 in 4.0 mi South 9.2 mph - N/A   Haze
6:53 PM -38.9 °F -65.9 °F - N/A% 29.66 in 4.0 mi South 11.5 mph - N/A   Haze
7:53 PM -38.9 °F -65.9 °F - N/A% 29.66 in 5.0 mi South 11.5 mph - N/A   Haze
8:53 PM -38.9 °F -67.1 °F - N/A% 29.66 in 5.0 mi South 12.7 mph - N/A   Haze
9:53 PM -38.9 °F -65.9 °F - N/A% 29.67 in 5.0 mi South 11.5 mph - N/A   Haze
10:53 PM -40.0 °F -64.5 °F - N/A% 29.67 in 5.0 mi South 9.2 mph - N/A   Haze
11:53 PM -40.0 °F -64.5 °F - N/A% 29.68 in 5.0 mi South 9.2 mph - N/A   Haze